Regional Weather Roundup
Issued by NWS Charleston, SC

Current Version | Previous Version | Graphics & Text | Print | Product List | Glossary On
Versions: 1 2 3 4 5 6 7 8 9 10 11 12 13 14 15 16 17 18 19 20 21 22 23 24 25 26 27 28 29 30 31 32 33 34 35 36 37 38 39 40 41 42 43 44 45 46 47 48 49 50
000 ASUS42 KCHS 010427 RWRCHS REGIONAL WEATHER ROUNDUP NATIONAL WEATHER SERVICE CHARLESTON SC 1200 AM EDT SAT AUG 01 2015 NOTE: "FAIR" INDICATES FEW OR NO CLOUDS BELOW 12,000 FEET WITH NO SIGNIFICANT WEATHER AND/OR OBSTRUCTIONS TO VISIBILITY. NOT ALL STATIONS ARE QUALITY CONTROLLED BY THE NATIONAL WEATHER SERVICE. USE DATA WITH CAUTION...ESPECIALLY DEWPOINT OBSERVATIONS. SCZ027-030-031-034>040-042>050-010500- ...SOUTHEAST SOUTH CAROLINA... CITY SKY/WX TMP DP RH WIND PRES REMARKS N CHARLESTON MOCLDY 80 74 81 CALM 29.94F WATERFRONT PRK N/A 83 78 84 SW6 29.91F HX 93 MOUNT PLEASANT LGT RAIN 81 77 89 CALM 29.95R JOHNS ISLAND FAIR 82 79 89 CALM 29.95R HX 93 PINOPOLIS NOT AVBL MONCKS CORNER MOCLDY 77 73 88 CALM 29.95R SUMMERVILLE FAIR 75 75 100 CALM 29.95F BEAUFORT MCAS MOCLDY 77 75 93 N3 29.93F BEAUFORT ARPT FAIR 79 77 94 CALM 29.93S HILTON HEAD IS MOCLDY 79 77 94 CALM 29.94F WALTERBORO MOCLDY 77 73 88 CALM 29.95S ALLENDALE FAIR 75 73 94 CALM 29.94S ...SOUTHERN MIDLANDS AND PEE DEE... CITY SKY/WX TMP DP RH WIND PRES REMARKS GEORGETOWN NOT AVBL KINGSTREE NOT AVBL ORANGEBURG CLOUDY 76 72 87 CALM 29.95F BARNWELL MOCLDY 79 75 89 CALM 29.96S AIKEN MOCLDY 77 68 73 CALM 29.99S MANNING RAIN 75 73 94 SW3 29.95S COLUMBIA PTCLDY 82 71 69 CALM 29.94S SUMTER PTCLDY 78 72 81 S7 29.92F FLORENCE CLEAR 77 71 82 SW5 29.93S MYRTLE BEACH MOCLDY 77 72 83 SW5 29.95S N MYRTLE BEACH MOCLDY 78 75 90 W7 29.92S $$ GAZ063-065-086>088-099>101-113>116-118-119-134>141-150-010500- ...SOUTHEAST GEORGIA... CITY SKY/WX TMP DP RH WIND PRES REMARKS SAVANNAH ARPT CLOUDY 76 74 93 CALM 29.94S HUNTER AAF CLOUDY 77 77 99 W3 29.92R FORT STEWART NOT AVBL STATESBORO MOCLDY 74 32 21 CALM 29.94F HAZE SYLVANIA PTCLDY 75 75 100 CALM 29.95F CLAXTON NOT AVBL ...CSRA...CENTRAL AND FAR SOUTHEAST GEORGIA... CITY SKY/WX TMP DP RH WIND PRES REMARKS THOMSON PTCLDY 77 75 93 SW3 30.00S AUGUSTA-BUSH CLEAR 75 73 93 SE3 29.94S AUGUSTA-DANIEL PTCLDY 79 72 79 CALM 29.96F SWAINSBORO FAIR N/A N/A N/A CALM 29.96S VIDALIA MOCLDY 73 72 94 CALM 29.95F EASTMAN FOG 74 74 100 CALM 29.97F VSB 1/2 HAZLEHURST FAIR 78 77 96 CALM 29.93F ALMA CLOUDY 76 73 91 CALM 29.94F WAYCROSS CLOUDY 78 77 98 CALM 29.88F JESUP CLOUDY 77 77 100 CALM 29.94S FOG BAXLEY FAIR 77 73 88 CALM 29.93F BRUNSWICK CLOUDY 77 73 88 CALM 29.95R SAINT SIMONS CLOUDY 76 74 93 SW5 29.94S $$ SCZ027-028-034-036>038-045-046-048>050-GAZ119-141-010500- ...LAKE AND SUPPLEMENTAL COASTAL OBSERVATIONS... STATION/POSITION TIME TEMP WIND PRES WAVE SWELL AIR SEA DIR/SP/G HT/PER HT/PER/DIR (UTC) (F) (DEG/KT/KT) (MB) (FT/S) (FT/S/D) UPR LAKE MARION NOT AVBL WINYAH BAY 0300 78 220/ 5 1013.0 LAKE MURRAY 0300 86 210/ 4/ 6 1013.2R ACE BASIN NERRS NOT AVBL FORT PULASKI 0400 79 86 250/ 3/ 4 1014.1S SAPELO ISLAND 0400 79 220/ 6 1013.0F $$ ANZ835-935-AMZ111-154-330-350-352-354-370-450-454-472-010500- ...C-MAN AND BUOY OBSERVATIONS... STATION/POSITION TIME TEMP WIND PRES WAVE SWELL AIR SEA DIR/SP/G HT/PER HT/PER/DIR (UTC) (F) (DEG/KT/KT) (MB) (FT/S) (FT/S/D) BUOY 41004 0350 84 84 220/ 14/ 17 1013.3F 4/ 8 3/ 8 BUOY 41008 0350 81 83 250/ 6/ 8 1013.8F 3/ 5 2/150/ 5 FOLLY BEACH CMAN 0400 82 220/ 8/ 10 1014.1F CAPERS NEARSHORE 0308 83 230/ 14/ 17 1014.3F FRIPP NEARSHORE 0300 83 210/ 12/ 14 1013.7R STATION/POSITION TIME TEMP WIND PRES WAVE SWELL AIR SEA DIR/SP/G HT/PER HT/PER/DIR (UTC) (F) (DEG/KT/KT) (MB) (FT/S) (FT/S/D) 5E ST. MARYS GA 0321 83 N/A 3/ 5 FRYING PAN BUOY 0350 83 84 230/ 12/ 14 1014.2R 4/ 6 2/150/ 8 BUOY 41025 0350 82 85 100/ 2/ 4 1014.2F 4/ 8 3/150/ 8 CAPE LOOKOUT NC 0400 80 150/ 4/ 4 1013.7F BUOY 41002 0350 82 81 240/ 16/ 19 1016.9R 7/ 7 BUOY 41010 0320 80 84 240/ 14/ 17 1016.3F ST AUGUSTINE FL 0400 79 82 210/ 10/ 11 1015.5F $$

USA.gov is the U.S. government's official web portal to all federal, state and local government web resources and services.